DateTimeUTC,F1_A11,F1_S11,BsB_S11,BsG_S11,BsR_S11,BbsB_S11,BbsG_S11,BbsR_S11,BaB_A11,BaG_A11,BaR_A11,Tu_S11,T_S11,Uu_S11,U_S11,P_S11,T1_A11
2021-03-03T01:00:00Z,00000200,21000000,,,,,,,-000.18,0000.03,0000.05,17.0,24.1,,00.0,0657.4,30.9
2021-03-03T01:01:00Z,00000200,21000000,,,,,,,-000.02,0000.41,-000.04,17.0,24.1,,00.0,0657.4,30.9
2021-03-03T01:02:00Z,00000200,21000000,,,,,,,0000.23,-000.07,0000.49,17.0,24.1,,00.0,0657.4,30.9
2021-03-03T01:03:00Z,00000200,61000000,,,,,,,0000.14,0000.46,-000.03,17.0,24.1,,00.0,0657.4,30.9
2021-03-03T01:04:00Z,00000200,41000000,0000.58,0001.09,0000.64,-000.02,0000.21,0000.07,0000.54,0000.03,0000.14,17.0,23.9,,00.0,0658.3,30.8
2021-03-03T01:05:00Z,00000200,01000000,0000.96,0000.84,0000.20,0000.16,-000.00,0000.04,0000.06,0000.36,0000.04,17.0,23.8,,00.0,0658.4,30.8
2021-03-03T01:06:00Z,00000200,01000000,0000.93,0000.84,0000.30,0000.40,-000.04,0000.19,0000.53,0000.00,0000.10,17.0,23.8,,00.0,0658.4,30.8
2021-03-03T01:07:00Z,00000200,01000000,0001.07,0000.76,0000.36,-000.14,0000.04,0000.42,0000.03,0000.29,0000.16,16.9,23.8,,00.0,0658.4,30.8
2021-03-03T01:08:00Z,00000200,01000000,0001.21,0000.65,0000.76,0000.05,0000.11,0000.33,0000.35,0000.28,0000.13,16.9,23.7,,00.0,0658.4,30.8
2021-03-03T01:09:00Z,00000200,01000000,0001.29,0000.76,0000.41,-000.03,0000.08,0000.23,0000.37,0000.29,0000.44,16.8,23.7,,00.0,0658.4,30.8
2021-03-03T01:10:00Z,00000200,01000000,0000.95,0000.96,0000.59,0000.38,-000.05,0000.19,0000.32,0000.09,-000.03,16.8,23.7,,00.0,0658.5,30.8
2021-03-03T01:11:00Z,00000200,01000000,0001.05,0000.77,0000.31,0000.22,0000.19,0000.13,0000.30,0000.43,0000.12,16.7,23.7,,00.0,0658.5,30.8
2021-03-03T01:12:00Z,00000200,01000000,0000.63,0000.49,0000.61,0000.24,-000.07,0000.15,0000.19,0000.09,0000.38,16.7,23.6,,00.0,0658.5,30.8
2021-03-03T01:13:00Z,00000200,01000000,0000.80,0000.80,0000.35,0000.42,0000.10,0000.08,0000.18,0000.11,0000.17,16.6,23.6,,00.0,0658.5,30.8
2021-03-03T01:14:00Z,00000200,01000000,0000.39,0000.72,0000.50,0000.29,0000.07,0000.11,0000.38,0000.23,0000.35,16.6,23.6,,00.0,0658.5,30.8
2021-03-03T01:15:00Z,00000200,01000000,0001.13,0000.51,0000.30,0000.62,0000.07,0000.09,0000.37,0000.38,0000.09,16.7,23.5,,00.0,0658.5,30.8
2021-03-03T01:16:00Z,00000200,01000000,0001.46,0000.49,0000.49,0000.12,0000.03,0000.21,0000.15,0000.28,0000.14,16.7,23.6,,00.0,0658.5,30.8
2021-03-03T01:17:00Z,00000200,01000000,0000.94,0000.83,0000.51,0000.59,0000.10,0000.30,0000.77,0000.48,0000.34,16.8,23.6,,00.0,0658.5,30.8
2021-03-03T01:18:00Z,00000200,01000000,0001.51,0000.38,0000.34,0000.27,-000.18,0000.20,-000.16,0000.08,-000.07,16.8,23.6,,00.0,0658.6,30.8
2021-03-03T01:19:00Z,00000200,01000000,0001.31,0000.70,0000.44,0000.28,0000.00,0000.03,0000.47,0000.14,0000.27,16.9,23.7,,00.0,0658.6,30.8
2021-03-03T01:20:00Z,00000200,01000000,0001.34,0000.77,0000.28,0000.05,0000.15,0000.29,0000.17,0000.19,0000.16,16.9,23.7,,00.0,0658.6,30.8
2021-03-03T01:21:00Z,00000200,01000000,0001.18,0000.71,0000.27,-000.22,0000.03,0000.17,0000.43,-000.00,0000.24,17.0,23.7,,00.0,0658.6,30.8
2021-03-03T01:22:00Z,00000200,01000000,0000.62,0000.86,0000.49,0000.37,0000.01,0000.28,0000.28,0001.03,0000.26,17.1,23.7,,00.0,0658.6,30.8
2021-03-03T01:23:00Z,00000200,01000000,0000.45,0000.65,0000.44,0000.36,-000.13,0000.18,0000.11,-000.03,0000.19,17.1,23.8,,00.0,0658.6,30.9
2021-03-03T01:24:00Z,00000200,01000000,0001.28,0000.66,0000.57,0000.52,-000.08,0000.27,0000.64,0000.37,0000.23,17.2,23.8,,00.0,0658.6,30.9
2021-03-03T01:25:00Z,00000200,01000000,0000.71,0000.73,0000.34,0000.17,0000.21,0000.25,0000.08,0000.27,-000.01,17.2,23.8,,00.0,0658.7,30.9
2021-03-03T01:26:00Z,00000200,01000000,0000.98,0000.78,0000.66,0000.36,0000.23,0000.14,0000.44,0000.66,0000.60,17.2,23.8,,00.0,0658.7,30.9
2021-03-03T01:27:00Z,00000200,01000000,0001.19,0000.82,0000.35,0000.27,0000.23,0000.16,0000.45,0000.12,0000.34,17.2,23.8,,00.0,0658.7,30.9
2021-03-03T01:28:00Z,00000200,01000000,0000.98,0000.89,0000.39,0000.11,-000.11,0000.13,0000.08,0000.09,-000.29,17.2,23.8,,00.0,0658.7,30.9
2021-03-03T01:29:00Z,00000200,01000000,0001.84,0000.94,0000.45,0000.66,0000.14,0000.19,0000.26,0000.22,0000.27,17.1,23.8,,00.0,0658.7,30.8
2021-03-03T01:30:00Z,00000200,01000000,0001.44,0000.69,0000.34,0000.19,0000.15,0000.14,0000.52,0000.64,0000.29,17.1,23.8,,00.0,0658.8,30.8
2021-03-03T01:31:00Z,00000200,01000000,0001.49,0000.80,0000.40,0000.14,-000.12,-000.22,0000.19,0000.07,-000.03,17.0,23.8,,00.0,0658.8,30.8
2021-03-03T01:32:00Z,00000200,01000000,0001.08,0000.80,0000.26,0000.87,-000.01,0000.17,0000.35,0000.22,0000.30,17.0,23.7,,00.0,0658.8,30.8
2021-03-03T01:33:00Z,00000200,01000000,0000.69,0000.90,0000.43,0000.42,0000.12,0000.15,0000.33,-000.04,-000.18,16.9,23.7,,00.0,0658.8,30.8
2021-03-03T01:34:00Z,00000200,01000000,0001.12,0000.80,0000.24,0000.03,-000.16,0000.25,0000.13,0000.38,0000.62,16.8,23.7,,00.0,0658.7,30.8
2021-03-03T01:35:00Z,00000200,01000000,0001.17,0000.74,0000.47,0000.08,0000.12,0000.15,0000.74,0000.47,0000.18,16.8,23.6,,00.0,0658.7,30.8
2021-03-03T01:36:00Z,00000200,01000000,0000.90,0000.62,0000.26,0000.21,-000.01,0000.12,0000.03,0000.14,0000.32,16.7,23.6,,00.0,0658.7,30.8
2021-03-03T01:37:00Z,00000200,01000000,0000.66,0000.78,0000.42,0000.04,0000.04,0000.20,0000.56,0000.68,0000.53,16.7,23.6,,00.0,0658.6,30.8
2021-03-03T01:38:00Z,00000200,01000000,0001.06,0000.86,0000.47,-000.15,0000.08,0000.15,0000.26,0000.04,0000.10,16.7,23.5,,00.0,0658.6,30.8
2021-03-03T01:39:00Z,00000200,01000000,0001.47,0001.01,0000.44,0000.08,0000.08,0000.02,0000.59,0000.51,-000.09,16.6,23.5,,00.0,0658.5,30.8
2021-03-03T01:40:00Z,00000200,01000000,0001.01,0000.85,0000.36,0000.24,-000.03,0000.08,0000.45,0000.72,0000.74,16.6,23.5,,00.0,0658.4,30.8
2021-03-03T01:41:00Z,00000200,01000000,0001.14,0000.82,0000.55,0000.10,0000.22,0000.11,0000.35,0000.07,-000.03,16.5,23.4,,00.0,0658.4,30.8
2021-03-03T01:42:00Z,00000200,01000000,0000.76,0000.62,0000.41,0000.08,-000.16,0000.13,-000.09,0000.05,-000.06,16.5,23.4,,00.0,0658.4,30.8
2021-03-03T01:43:00Z,00000200,01000000,0001.35,0000.93,0000.20,0000.51,-000.08,0000.18,0000.25,-000.30,-000.19,16.5,23.4,,00.0,0658.5,30.7
2021-03-03T01:44:00Z,00000200,01000000,0001.82,0001.05,0000.73,0000.28,0000.31,0000.22,0000.35,0000.39,0000.12,16.4,23.3,,00.0,0658.5,30.8
2021-03-03T01:45:00Z,00000200,01000000,0001.53,0000.89,0000.20,0000.12,0000.10,0000.16,0000.03,-000.36,0000.40,16.5,23.3,,00.0,0658.5,30.8
2021-03-03T01:46:00Z,00000200,01000000,0001.18,0000.54,0000.25,-000.02,0000.00,0000.10,-000.16,0000.38,0000.00,16.5,23.4,,00.0,0658.6,30.8
2021-03-03T01:47:00Z,00000200,01000000,0001.03,0001.12,0000.40,0000.04,-000.21,0000.30,0000.30,0000.18,0000.17,16.6,23.4,,00.0,0658.6,30.8
2021-03-03T01:48:00Z,00000200,01000000,0000.81,0000.66,0000.25,0000.25,-000.05,0000.28,0000.32,0000.27,0000.02,16.6,23.4,,00.0,0658.6,30.8
2021-03-03T01:49:00Z,00000200,01000000,0000.95,0000.96,0000.29,0000.65,0000.18,0000.34,0000.11,0000.17,0000.22,16.7,23.5,,00.0,0658.6,30.8
2021-03-03T01:50:00Z,00000200,01000000,0001.26,0000.84,0000.42,0000.13,0000.37,0000.19,0000.40,0000.37,0000.51,16.8,23.5,,00.0,0658.6,30.8
2021-03-03T01:51:00Z,00000200,01000000,0001.24,0000.52,0000.53,-000.02,0000.10,0000.04,0000.53,0000.26,-000.01,16.8,23.5,,00.0,0658.6,30.8
2021-03-03T01:52:00Z,00000200,01000000,0000.98,0000.67,0000.39,0000.53,0000.11,0000.04,0000.12,0000.42,0000.28,16.9,23.6,,00.0,0658.6,30.8
2021-03-03T01:53:00Z,00000200,01000000,0001.43,0000.91,0000.22,0000.53,0000.15,0000.19,0000.04,0000.09,0000.32,16.9,23.6,,00.0,0658.7,30.8
2021-03-03T01:54:00Z,00000200,01000000,0001.06,0000.77,0000.38,0000.14,0000.24,0000.07,0000.57,0000.28,-000.13,17.0,23.6,,00.0,0658.7,30.8
2021-03-03T01:55:00Z,00000200,01000000,0000.64,0000.57,0000.34,0000.45,-000.07,0000.28,0000.07,0000.23,0000.25,17.0,23.7,,00.0,0658.7,30.8
2021-03-03T01:56:00Z,00000200,01000000,0000.78,0000.67,0000.61,0000.01,-000.08,0000.40,0000.49,0000.74,0000.28,17.1,23.7,,00.0,0658.8,30.8
2021-03-03T01:57:00Z,00000200,41000000,,,,,,,-000.21,-000.40,0000.06,17.2,23.7,,00.0,0658.8,30.9
2021-03-03T01:58:00Z,00000200,61000000,,,,,,,0000.26,0000.19,0000.14,16.9,23.8,,00.0,0657.8,30.9
2021-03-03T01:59:00Z,00000200,21000000,,,,,,,-000.06,0000.02,0000.04,16.9,23.9,,00.0,0657.8,30.9
